FLOCK 3S-2 (43821 NORAD) Tracking and Keplerian Element Data

This shows tracking and keplerian element data for the satellite.

Feedback or suggestion? Click here.




ElementValue
Catalog43821
NameFLOCK 3S-2
Epoch Orbit12649
Epoch Day90.13673
Epoch Year2021
RAAN162.8351
Inclination97.6733
Eccentricity0.0012811
Argument of Perigee316.1947
Mean Anonmoly43.8257
Mean Motion14.95806358
Decay Rate1.064E-05
L11 43821U 18099BR 21090.13673000 .00001064 00000-0 10037-3 0 9992
L22 43821 97.6733 162.8351 0012811 316.1947 43.8257 14.95806358126495



Live tracking and technical data element details for FLOCK 3S-2 (NORAD 43821). FLOCK 3S-2 can be tracked NOW for your location showing map with azimuth and elevation plus other details from your city location.







IsCatalogInMostPopularTable: catalog: 43821, numindb: 328
Update: records affected: 1



GetName: 43821 FLOCK 3S-2

Hit Count: updated at: Thu, 22 May 2025 02:35:11 GMT